EST,Max TemperatureF,Mean TemperatureF,Min TemperatureF,Max Dew PointF,MeanDew PointF,Min DewpointF,Max Humidity, Mean Humidity, Min Humidity, Max Sea Level PressureIn, Mean Sea Level PressureIn, Min Sea Level PressureIn, Max VisibilityMiles, Mean VisibilityMiles, Min VisibilityMiles, Max Wind SpeedMPH, Mean Wind SpeedMPH, Max Gust SpeedMPH,PrecipitationIn, CloudCover, Events, WindDirDegrees
2013-12-1,42,30,19,32,26,19,100,89,57,30.40,30.21,30.05,10,9,5,6,0,,0.00,4,,214
2013-12-2,44,38,33,36,33,32,100,86,70,30.04,29.97,29.91,10,9,5,5,0,,0.00,8,,10
2013-12-3,55,44,32,39,35,32,100,92,54,30.02,29.96,29.92,10,6,3,6,0,,0.00,4,,234
2013-12-4,55,42,30,50,40,30,100,92,67,30.12,30.07,30.02,10,6,2,4,1,,0.00,4,,32
2013-12-5,66,57,48,61,54,46,100,94,73,30.09,30.02,29.94,10,7,1,12,2,16,0.00,7,Rain,196
2013-12-6,62,48,35,63,49,36,100,100,100,30.22,30.05,29.91,10,6,1,15,7,21,0.54,8,Rain,341
2013-12-7,39,34,30,37,30,23,100,85,65,30.57,30.40,30.19,10,10,4,15,7,21,0.00,4,Rain,355
2013-12-8,30,27,24,30,25,21,100,90,74,30.62,30.52,30.33,10,6,0,8,4,,0.15,5,Snow,16
2013-12-9,35,32,28,36,32,28,100,99,93,30.35,30.16,30.06,10,4,0,8,4,,0.20,8,Fog,158
2013-12-10,37,29,21,34,27,18,100,86,64,30.24,30.11,30.03,10,8,0,13,3,,0.00,3,Snow,240
2013-12-11,35,24,12,21,17,12,100,75,48,30.43,30.31,30.25,10,9,1,14,6,18,0.00,1,Snow,244
2013-12-12,32,24,17,25,15,5,100,63,40,30.46,30.35,30.26,10,10,10,14,6,18,0.00,2,Snow,307
2013-12-13,39,30,21,27,16,9,100,63,41,30.33,30.28,30.24,10,10,10,22,8,28,0.00,0,,209
2013-12-14,33,30,28,34,30,27,100,94,86,30.36,30.16,29.76,10,6,0,13,3,,0.27,6,Rain-Snow,12
2013-12-15,42,37,32,36,30,23,100,87,69,29.97,29.81,29.67,10,9,5,21,8,26,0.00,6,,274
2013-12-16,35,32,28,28,25,19,87,76,69,30.22,30.12,29.96,10,10,10,17,8,21,0.00,8,,322
2013-12-17,33,30,28,32,29,27,100,96,80,30.19,30.07,29.97,10,5,2,7,3,,0.00,6,Snow,11
2013-12-18,37,30,24,28,25,21,100,81,56,30.23,30.15,30.03,10,8,3,16,3,21,0.00,4,,244
2013-12-19,48,34,21,37,27,21,100,90,50,30.22,30.16,30.09,10,10,7,8,2,,0.00,0,,193
2013-12-20,48,40,32,36,34,32,100,89,62,30.12,30.08,30.02,10,10,10,7,1,,0.00,2,,213
2013-12-21,66,50,35,59,46,34,100,87,68,30.03,29.98,29.90,10,10,10,18,4,28,0.00,2,Rain,194
2013-12-22,69,64,60,64,61,59,100,91,83,30.02,29.92,29.83,10,10,5,21,14,31,0.02,5,Rain-Thunderstorm,195
2013-12-23,60,48,35,59,47,28,100,88,66,30.28,30.09,29.97,10,8,1,17,6,24,0.52,5,Rain,292
2013-12-24,37,30,23,30,20,9,93,66,47,30.50,30.35,30.24,10,10,10,20,7,29,0.00,1,,319
2013-12-25,30,24,17,30,15,10,100,67,51,30.61,30.50,30.40,10,10,10,9,5,,0.00,0,,247
2013-12-26,44,32,21,27,23,19,100,82,43,30.40,30.33,30.24,10,10,10,16,2,22,0.00,2,,211
2013-12-27,51,36,21,28,24,19,100,78,30,30.44,30.38,30.33,10,10,10,12,2,17,0.00,0,,184
2013-12-28,57,42,26,32,29,25,93,77,36,30.34,30.25,30.13,10,10,10,14,4,,0.00,0,,196
2013-12-29,46,40,35,45,38,32,100,90,70,30.12,29.91,29.60,10,9,2,13,4,21,0.02,5,Rain,250
2013-12-30,46,37,28,41,32,21,100,78,65,30.21,30.04,29.83,10,10,10,13,7,26,0.00,6,,288
2013-12-31,39,34,28,30,23,18,93,73,48,30.34,30.23,30.13,10,10,10,23,3,43,0.00,4,,243